Time,TemperatureF,DewpointF,PressureIn,WindDirection,WindDirectionDegrees,WindSpeedMPH,WindSpeedGustMPH,Humidity,HourlyPrecipIn,Conditions,Clouds,dailyrainin,SoftwareType,DateUTC
2013-01-20 00:04:00,67.0,66.0,30.13,SSE,158,0.0,1.0,96,0.00,,,0.08,,2013-01-20 05:04:00,
2013-01-20 00:12:00,67.0,66.0,30.13,SSE,158,0.0,1.0,96,0.00,,,0.08,,2013-01-20 05:12:00,
2013-01-20 00:22:00,66.0,65.0,30.12,SSE,159,0.0,1.0,96,0.00,,,0.08,,2013-01-20 05:22:00,
2013-01-20 00:33:00,66.0,65.0,30.12,SSE,160,0.0,1.0,96,0.00,,,0.08,,2013-01-20 05:33:00,
2013-01-20 00:43:00,66.0,65.0,30.12,SSE,160,0.0,1.0,96,0.00,,,0.08,,2013-01-20 05:43:00,
2013-01-20 00:53:00,66.0,65.0,30.12,SSE,159,0.0,1.0,97,0.00,,,0.08,,2013-01-20 05:53:00,
2013-01-20 01:02:00,66.0,65.0,30.12,SSE,159,0.0,1.0,97,0.00,,,0.08,,2013-01-20 06:02:00,
2013-01-20 01:12:00,66.0,65.0,30.12,SSE,159,0.0,1.0,97,0.00,,,0.08,,2013-01-20 06:12:00,
2013-01-20 01:22:00,65.0,64.0,30.11,SSE,158,0.0,0.0,97,0.00,,,0.08,,2013-01-20 06:22:00,
2013-01-20 01:33:00,65.0,64.0,30.11,SSE,158,0.0,0.0,97,0.00,,,0.08,,2013-01-20 06:33:00,
2013-01-20 01:43:00,65.0,64.0,30.11,SSE,158,0.0,0.0,97,0.00,,,0.08,,2013-01-20 06:43:00,
2013-01-20 01:53:00,65.0,64.0,30.11,SSE,155,0.0,1.0,97,0.00,,,0.08,,2013-01-20 06:53:00,
2013-01-20 02:02:00,65.0,64.0,30.11,SSE,156,0.0,1.0,97,0.00,,,0.08,,2013-01-20 07:02:00,
2013-01-20 02:12:00,65.0,64.0,30.11,SSE,156,0.0,1.0,97,0.00,,,0.08,,2013-01-20 07:12:00,
2013-01-20 02:22:00,65.0,64.0,30.10,SSE,154,0.0,1.0,97,0.00,,,0.08,,2013-01-20 07:22:00,
2013-01-20 02:32:00,65.0,64.0,30.10,SSE,153,0.0,0.0,97,0.00,,,0.08,,2013-01-20 07:32:00,
2013-01-20 02:42:00,65.0,64.0,30.10,SSE,153,0.0,0.0,97,0.00,,,0.08,,2013-01-20 07:42:00,
2013-01-20 02:52:00,65.0,64.0,30.10,SSE,154,0.0,0.0,97,0.00,,,0.08,,2013-01-20 07:52:00,
2013-01-20 03:02:00,65.0,64.0,30.09,SSE,157,0.0,0.0,97,0.00,,,0.08,,2013-01-20 08:02:00,
2013-01-20 03:12:00,65.0,64.0,30.09,SSE,157,0.0,0.0,97,0.00,,,0.08,,2013-01-20 08:12:00,
2013-01-20 03:22:00,65.0,64.0,30.09,SSE,156,0.0,0.0,97,0.00,,,0.08,,2013-01-20 08:22:00,
2013-01-20 03:32:00,65.0,64.0,30.09,SSE,162,0.0,0.0,98,0.00,,,0.08,,2013-01-20 08:32:00,
2013-01-20 03:42:00,65.0,64.0,30.09,SSE,162,0.0,0.0,98,0.00,,,0.08,,2013-01-20 08:42:00,
2013-01-20 03:53:00,65.0,64.0,30.09,SSE,153,0.0,1.0,98,0.00,,,0.08,,2013-01-20 08:53:00,
2013-01-20 04:02:00,65.0,64.0,30.09,SSE,158,0.0,1.0,98,0.00,,,0.08,,2013-01-20 09:02:00,
2013-01-20 04:12:00,65.0,64.0,30.09,SSE,158,0.0,1.0,98,0.00,,,0.08,,2013-01-20 09:12:00,
2013-01-20 04:22:00,65.0,64.0,30.08,SSE,158,0.0,0.0,98,0.00,,,0.08,,2013-01-20 09:22:00,
2013-01-20 04:33:00,65.0,64.0,30.09,SSE,159,0.0,1.0,98,0.00,,,0.08,,2013-01-20 09:33:00,
2013-01-20 04:42:00,65.0,64.0,30.09,SSE,159,0.0,1.0,98,0.00,,,0.08,,2013-01-20 09:42:00,
2013-01-20 04:53:00,65.0,64.0,30.09,SSE,149,0.0,1.0,98,0.00,,,0.08,,2013-01-20 09:53:00,
2013-01-20 05:02:00,65.0,64.0,30.09,SSE,156,0.0,0.0,98,0.00,,,0.08,,2013-01-20 10:02:00,
2013-01-20 05:12:00,65.0,64.0,30.09,SSE,156,0.0,0.0,98,0.00,,,0.08,,2013-01-20 10:12:00,
2013-01-20 05:22:00,65.0,64.0,30.09,SSE,162,0.0,0.0,98,0.00,,,0.07,,2013-01-20 10:22:00,
2013-01-20 05:32:00,65.0,64.0,30.10,South,176,0.0,1.0,98,0.00,,,0.07,,2013-01-20 10:32:00,
2013-01-20 05:42:00,65.0,64.0,30.10,South,176,0.0,1.0,98,0.00,,,0.07,,2013-01-20 10:42:00,
2013-01-20 05:53:00,65.0,64.0,30.11,SSE,166,0.0,1.0,98,0.00,,,0.07,,2013-01-20 10:53:00,
2013-01-20 06:02:00,65.0,64.0,30.11,South,179,1.0,3.0,98,0.00,,,0.07,,2013-01-20 11:02:00,
2013-01-20 06:12:00,65.0,64.0,30.11,South,179,1.0,3.0,98,0.00,,,0.07,,2013-01-20 11:12:00,
2013-01-20 06:22:00,65.0,64.0,30.11,SSE,159,1.0,2.0,98,0.00,,,0.05,,2013-01-20 11:22:00,
2013-01-20 06:33:00,65.0,64.0,30.11,South,184,0.0,3.0,98,0.00,,,0.05,,2013-01-20 11:33:00,
2013-01-20 06:43:00,65.0,64.0,30.11,South,184,0.0,3.0,98,0.00,,,0.05,,2013-01-20 11:43:00,
2013-01-20 06:54:00,65.0,64.0,30.11,South,184,0.0,4.0,98,0.00,,,0.05,,2013-01-20 11:54:00,
2013-01-20 07:03:00,65.0,64.0,30.12,South,190,1.0,3.0,98,0.01,,,0.06,,2013-01-20 12:03:00,
2013-01-20 07:12:00,65.0,64.0,30.12,South,190,1.0,3.0,98,0.01,,,0.06,,2013-01-20 12:12:00,
2013-01-20 07:23:00,65.0,64.0,30.12,SSE,159,0.0,1.0,98,0.01,,,0.03,,2013-01-20 12:23:00,
2013-01-20 07:33:00,65.0,64.0,30.13,SSE,163,0.0,2.0,98,0.01,,,0.03,,2013-01-20 12:33:00,
2013-01-20 07:43:00,65.0,64.0,30.13,SSE,163,0.0,2.0,98,0.01,,,0.03,,2013-01-20 12:43:00,
2013-01-20 07:53:00,65.0,64.0,30.13,SSE,162,0.0,1.0,98,0.01,,,0.03,,2013-01-20 12:53:00,
2013-01-20 08:03:00,65.0,64.0,30.13,SE,146,0.0,1.0,98,0.00,,,0.03,,2013-01-20 13:03:00,
2013-01-20 08:12:00,65.0,64.0,30.13,SE,146,0.0,1.0,98,0.00,,,0.03,,2013-01-20 13:12:00,
2013-01-20 08:23:00,66.0,65.0,30.14,South,173,0.0,3.0,98,0.00,,,0.03,,2013-01-20 13:23:00,
2013-01-20 08:33:00,66.0,65.0,30.15,South,183,0.0,2.0,98,0.00,,,0.03,,2013-01-20 13:33:00,
2013-01-20 08:43:00,66.0,65.0,30.15,South,183,0.0,2.0,98,0.00,,,0.03,,2013-01-20 13:43:00,
2013-01-20 08:53:00,66.0,65.0,30.15,SSE,159,0.0,1.0,98,0.00,,,0.03,,2013-01-20 13:53:00,
2013-01-20 09:02:00,67.0,66.0,30.16,SE,146,0.0,2.0,98,0.00,,,0.03,,2013-01-20 14:02:00,
2013-01-20 09:12:00,67.0,66.0,30.16,SE,146,0.0,2.0,98,0.00,,,0.03,,2013-01-20 14:12:00,
2013-01-20 09:23:00,68.0,67.0,30.16,South,177,0.0,1.0,98,0.00,,,0.02,,2013-01-20 14:23:00,
2013-01-20 09:33:00,68.0,67.0,30.16,South,181,0.0,2.0,98,0.00,,,0.02,,2013-01-20 14:33:00,
2013-01-20 09:43:00,68.0,67.0,30.16,South,181,0.0,2.0,98,0.00,,,0.02,,2013-01-20 14:43:00,
2013-01-20 09:53:00,70.0,69.0,30.16,SSE,150,0.0,1.0,97,0.00,,,0.02,,2013-01-20 14:53:00,
2013-01-20 10:03:00,71.0,69.0,30.17,SSE,148,0.0,2.0,93,0.00,,,0.02,,2013-01-20 15:03:00,
2013-01-20 10:12:00,71.0,69.0,30.17,SSE,148,0.0,2.0,93,0.00,,,0.02,,2013-01-20 15:12:00,
2013-01-20 10:23:00,73.0,70.0,30.17,SSE,148,0.0,2.0,89,0.00,,,0.01,,2013-01-20 15:23:00,
2013-01-20 10:33:00,73.0,69.0,30.16,SSW,203,1.0,4.0,87,0.00,,,0.01,,2013-01-20 15:33:00,
2013-01-20 10:42:00,73.0,69.0,30.16,SSW,203,1.0,4.0,87,0.00,,,0.01,,2013-01-20 15:42:00,
2013-01-20 10:53:00,74.0,70.0,30.16,SSW,193,1.0,3.0,86,0.00,,,0.01,,2013-01-20 15:53:00,
2013-01-20 11:03:00,74.0,69.0,30.15,South,187,1.0,3.0,84,0.00,,,0.01,,2013-01-20 16:03:00,
2013-01-20 11:12:00,74.0,69.0,30.15,South,187,1.0,3.0,84,0.00,,,0.01,,2013-01-20 16:12:00,
2013-01-20 11:23:00,75.0,70.0,30.15,SSW,193,3.0,6.0,84,0.00,,,0.01,,2013-01-20 16:23:00,
2013-01-20 11:33:00,75.0,69.0,30.14,South,181,1.0,3.0,81,0.00,,,0.01,,2013-01-20 16:33:00,
2013-01-20 11:43:00,75.0,69.0,30.14,South,181,1.0,3.0,81,0.00,,,0.01,,2013-01-20 16:43:00,
2013-01-20 11:53:00,77.0,70.0,30.13,SSE,155,0.0,1.0,78,0.00,,,0.01,,2013-01-20 16:53:00,
2013-01-20 12:03:00,78.0,70.0,30.11,SSE,152,0.0,2.0,76,0.00,,,0.01,,2013-01-20 17:03:00,
2013-01-20 12:13:00,78.0,70.0,30.11,SSE,152,0.0,2.0,76,0.00,,,0.01,,2013-01-20 17:13:00,
2013-01-20 12:22:00,79.0,69.0,30.10,SSE,149,0.0,2.0,71,0.00,,,0.01,,2013-01-20 17:22:00,
2013-01-20 12:33:00,79.0,68.0,30.10,SSE,153,0.0,1.0,70,0.00,,,0.01,,2013-01-20 17:33:00,
2013-01-20 12:42:00,79.0,68.0,30.10,SSE,153,0.0,1.0,70,0.00,,,0.01,,2013-01-20 17:42:00,
2013-01-20 12:53:00,81.0,69.0,30.08,SE,143,1.0,2.0,66,0.00,,,0.01,,2013-01-20 17:53:00,
2013-01-20 13:03:00,81.0,69.0,30.07,SSE,160,0.0,3.0,66,0.00,,,0.01,,2013-01-20 18:03:00,
2013-01-20 13:13:00,81.0,68.0,30.06,South,172,0.0,1.0,64,0.00,,,0.01,,2013-01-20 18:13:00,
2013-01-20 13:23:00,81.0,68.0,30.06,South,172,0.0,1.0,64,0.00,,,0.01,,2013-01-20 18:23:00,
2013-01-20 13:33:00,82.0,68.0,30.06,South,170,0.0,2.0,62,0.00,,,0.01,,2013-01-20 18:33:00,
2013-01-20 13:43:00,82.0,68.0,30.06,South,170,0.0,2.0,62,0.00,,,0.01,,2013-01-20 18:43:00,
2013-01-20 13:53:00,82.0,68.0,30.05,SSE,156,0.0,2.0,62,0.00,,,0.01,,2013-01-20 18:53:00,
2013-01-20 14:02:00,83.0,67.0,30.05,SE,145,1.0,2.0,58,0.00,,,0.01,,2013-01-20 19:02:00,
2013-01-20 14:12:00,83.0,67.0,30.05,SE,145,1.0,2.0,58,0.00,,,0.01,,2013-01-20 19:12:00,
2013-01-20 14:22:00,83.0,67.0,30.04,South,174,0.0,1.0,58,0.00,,,0.01,,2013-01-20 19:22:00,
2013-01-20 14:33:00,83.0,65.0,30.04,South,176,0.0,5.0,54,0.00,,,0.01,,2013-01-20 19:33:00,
2013-01-20 14:43:00,83.0,65.0,30.04,South,176,0.0,5.0,54,0.00,,,0.01,,2013-01-20 19:43:00,
2013-01-20 14:53:00,84.0,66.0,30.04,SSE,162,0.0,1.0,55,0.00,,,0.01,,2013-01-20 19:53:00,
2013-01-20 15:03:00,82.0,66.0,30.03,SSE,159,0.0,5.0,58,0.00,,,0.01,,2013-01-20 20:03:00,
2013-01-20 15:12:00,82.0,66.0,30.03,SSE,159,0.0,5.0,58,0.00,,,0.01,,2013-01-20 20:12:00,
2013-01-20 15:23:00,82.0,66.0,30.03,South,170,0.0,2.0,59,0.00,,,0.01,,2013-01-20 20:23:00,
2013-01-20 15:33:00,81.0,69.0,30.03,SE,135,2.0,5.0,66,0.00,,,0.01,,2013-01-20 20:33:00,
2013-01-20 15:42:00,81.0,69.0,30.03,SE,135,2.0,5.0,66,0.00,,,0.01,,2013-01-20 20:42:00,
2013-01-20 15:53:00,79.0,68.0,30.03,SSE,158,0.0,4.0,70,0.00,,,0.01,,2013-01-20 20:53:00,
2013-01-20 16:03:00,78.0,68.0,30.03,SE,143,1.0,6.0,72,0.00,,,0.01,,2013-01-20 21:03:00,
2013-01-20 16:13:00,78.0,68.0,30.03,SE,143,1.0,6.0,72,0.00,,,0.01,,2013-01-20 21:13:00,
2013-01-20 16:23:00,78.0,68.0,30.03,SE,136,2.0,5.0,71,0.00,,,0.01,,2013-01-20 21:23:00,
2013-01-20 16:33:00,78.0,69.0,30.03,SE,142,1.0,6.0,73,0.00,,,0.01,,2013-01-20 21:33:00,
2013-01-20 16:43:00,78.0,69.0,30.03,SE,142,1.0,6.0,73,0.00,,,0.01,,2013-01-20 21:43:00,
2013-01-20 16:53:00,77.0,67.0,30.05,SE,143,1.0,5.0,72,0.00,,,0.01,,2013-01-20 21:53:00,
2013-01-20 17:03:00,77.0,68.0,30.05,SE,124,1.0,3.0,73,0.00,,,0.01,,2013-01-20 22:03:00,
2013-01-20 17:13:00,77.0,68.0,30.05,SE,124,1.0,3.0,73,0.00,,,0.01,,2013-01-20 22:13:00,
2013-01-20 17:23:00,76.0,68.0,30.05,SE,146,1.0,4.0,76,0.00,,,0.01,,2013-01-20 22:23:00,
2013-01-20 17:33:00,76.0,68.0,30.05,SE,141,1.0,5.0,77,0.00,,,0.01,,2013-01-20 22:33:00,
2013-01-20 17:43:00,76.0,68.0,30.05,SE,141,1.0,5.0,77,0.00,,,0.01,,2013-01-20 22:43:00,
2013-01-20 17:53:00,76.0,69.0,30.05,SE,142,0.0,4.0,78,0.00,,,0.01,,2013-01-20 22:53:00,
2013-01-20 18:03:00,75.0,68.0,30.05,SE,136,1.0,5.0,79,0.00,,,0.01,,2013-01-20 23:03:00,
2013-01-20 18:13:00,75.0,68.0,30.05,SE,136,1.0,5.0,79,0.00,,,0.01,,2013-01-20 23:13:00,
2013-01-20 18:23:00,75.0,68.0,30.06,SE,139,1.0,4.0,80,0.00,,,0.01,,2013-01-20 23:23:00,
2013-01-20 18:33:00,74.0,67.0,30.06,SE,143,1.0,3.0,80,0.00,,,0.01,,2013-01-20 23:33:00,
2013-01-20 18:43:00,74.0,67.0,30.06,SE,143,1.0,3.0,80,0.00,,,0.01,,2013-01-20 23:43:00,
2013-01-20 18:53:00,74.0,68.0,30.06,SE,142,0.0,1.0,81,0.00,,,0.01,,2013-01-20 23:53:00,
2013-01-20 19:03:00,74.0,68.0,30.06,SSE,156,0.0,1.0,82,0.00,,,0.01,,2013-01-21 00:03:00,
2013-01-20 19:13:00,74.0,68.0,30.06,SSE,156,0.0,1.0,82,0.00,,,0.01,,2013-01-21 00:13:00,
2013-01-20 19:23:00,73.0,68.0,30.06,SSE,156,0.0,1.0,83,0.00,,,0.01,,2013-01-21 00:23:00,
2013-01-20 19:33:00,73.0,68.0,30.06,SSE,155,0.0,0.0,84,0.00,,,0.01,,2013-01-21 00:33:00,
2013-01-20 19:43:00,73.0,68.0,30.06,SSE,155,0.0,0.0,84,0.00,,,0.01,,2013-01-21 00:43:00,
2013-01-20 19:54:00,72.0,67.0,30.06,SSE,156,0.0,0.0,85,0.00,,,0.01,,2013-01-21 00:54:00,
2013-01-20 20:03:00,72.0,68.0,30.06,SSE,156,0.0,0.0,86,0.00,,,0.01,,2013-01-21 01:03:00,
2013-01-20 20:13:00,72.0,68.0,30.06,SSE,156,0.0,0.0,86,0.00,,,0.01,,2013-01-21 01:13:00,
2013-01-20 20:23:00,72.0,68.0,30.06,SSE,156,0.0,0.0,86,0.00,,,0.01,,2013-01-21 01:23:00,
2013-01-20 20:33:00,72.0,68.0,30.07,SSE,156,0.0,0.0,86,0.00,,,0.01,,2013-01-21 01:33:00,
2013-01-20 20:43:00,72.0,68.0,30.07,SSE,156,0.0,0.0,86,0.00,,,0.01,,2013-01-21 01:43:00,
2013-01-20 20:53:00,72.0,68.0,30.06,SSE,156,0.0,0.0,86,0.00,,,0.01,,2013-01-21 01:53:00,
2013-01-20 21:03:00,71.0,67.0,30.07,SSE,156,0.0,0.0,87,0.00,,,0.01,,2013-01-21 02:03:00,
2013-01-20 21:12:00,71.0,67.0,30.07,SSE,156,0.0,0.0,87,0.00,,,0.01,,2013-01-21 02:12:00,
2013-01-20 21:23:00,70.0,67.0,30.07,SSE,156,0.0,0.0,90,0.00,,,0.01,,2013-01-21 02:23:00,
2013-01-20 21:33:00,70.0,67.0,30.08,SSE,156,0.0,0.0,90,0.00,,,0.01,,2013-01-21 02:33:00,
2013-01-20 21:43:00,70.0,67.0,30.08,SSE,156,0.0,0.0,90,0.00,,,0.01,,2013-01-21 02:43:00,
2013-01-20 21:53:00,70.0,67.0,30.08,SSE,156,0.0,0.0,90,0.00,,,0.01,,2013-01-21 02:53:00,
2013-01-20 22:03:00,70.0,67.0,30.08,SSE,156,0.0,0.0,91,0.00,,,0.01,,2013-01-21 03:03:00,
2013-01-20 22:13:00,70.0,67.0,30.08,SSE,156,0.0,0.0,91,0.00,,,0.01,,2013-01-21 03:13:00,
2013-01-20 22:23:00,70.0,68.0,30.08,SSE,156,0.0,0.0,92,0.00,,,0.01,,2013-01-21 03:23:00,
2013-01-20 22:33:00,70.0,68.0,30.08,SSE,158,0.0,1.0,93,0.00,,,0.01,,2013-01-21 03:33:00,
2013-01-20 22:43:00,70.0,68.0,30.08,SSE,158,0.0,1.0,93,0.00,,,0.01,,2013-01-21 03:43:00,
2013-01-20 22:54:00,69.0,67.0,30.08,SSE,156,0.0,0.0,93,0.00,,,0.01,,2013-01-21 03:54:00,
2013-01-20 23:03:00,69.0,67.0,30.08,SSE,158,0.0,0.0,94,0.00,,,0.01,,2013-01-21 04:03:00,
2013-01-20 23:13:00,69.0,67.0,30.08,SSE,158,0.0,0.0,94,0.00,,,0.01,,2013-01-21 04:13:00,
2013-01-20 23:23:00,69.0,67.0,30.08,SSE,158,0.0,0.0,94,0.00,,,0.01,,2013-01-21 04:23:00,
2013-01-20 23:33:00,69.0,67.0,30.07,SSE,156,0.0,0.0,94,0.00,,,0.01,,2013-01-21 04:33:00,
2013-01-20 23:43:00,69.0,67.0,30.07,SSE,156,0.0,0.0,94,0.00,,,0.01,,2013-01-21 04:43:00,
2013-01-20 23:53:00,69.0,68.0,30.07,SSE,156,0.0,0.0,95,0.00,,,0.01,,2013-01-21 04:53:00,